{"data":{"norad_id":66293,"intl_designator":"2025-248A","name":"KORSAT-4","alt_names":[],"object_type":"PAYLOAD","status":"ACTIVE","operator":null,"country":"SKOR","launch_date":"2025-11-02","launch_site_code":"AFETR","launch_vehicle":null,"mission":null,"orbit_class":"UNKNOWN","rcs_meters":null,"size_class":null,"mass_kg":null,"dimensions":null,"purposes":[],"wikipedia_slug":null,"has_3d_model":false,"image_url":null,"decayed_at":null,"tle_current":{"epoch":"2026-09-20T14:40:39.743040Z","epoch_age_seconds":138426,"freshness":"FRESH","line1":"1 66293U 25248A   26263.61157110  .00001958  00000+0  17877-3 0  9993","line2":"2 66293  45.4097  24.8298 0001481 281.0112  79.0599 14.98782864 48377","mean_motion":14.98782864,"eccentricity":0.0001481,"inclination_deg":45.4097,"raan_deg":24.8298,"arg_perigee_deg":281.0112,"mean_anomaly_deg":79.0599,"bstar":0.00017877,"rev_number":4837,"period_min":96.077959962585,"perigee_km":569.62668280514,"apogee_km":571.68491523221,"semimajor_km":6948.7927990187,"source":"CELESTRAK","updated_at":"2026-09-21T09:00:15.875791Z"}}}